Home > Weather > Nanning > Past weeks

Flag for China Weather for the Past 2 Weeks in Nanning, Guangxi, China

Now
72 °F

Clear.


Feels Like: 72 °F
Forecast: 60 / 89 °F
Wind: 1 mph from North

Location: Nanning Airport

Current Time: Feb 12, 2016 at 12:08:13 PM

Latest Report: Feb 12, 2016 at 11:00 AM


Visibility: 4 mi

Pressure: 29.86 "Hg

Humidity: 78%

Dew point: 64 °F

Location of NanningLocation

Historic Weather in Nanning — Graph

°F

Nanning Temperature Yesterday

Maximum temperature yesterday: 79 °F (at 4:00 PM)
Minimum temperature yesterday: 54 °F (at 4:00 AM)
Average temperature yesterday: 65 °F

High & Low Weather Summary for the Past Weeks

 TemperatureHumidityPressure
High79 °F (Feb 11, 4:00 PM)100% (Jan 28, 12:00 PM)30.45 "Hg (Jan 28, 12:00 PM)
Low34 °F (Feb 8, 7:00 AM)21% (Feb 8, 5:00 PM)29.74 "Hg (Feb 11, 4:00 PM)
Average54 °F78%30.16 "Hg
* Reported Jan 28 11:00 AM — Feb 12 11:00 AM, Nanning, Weather by CustomWeather, © 2016

Note: Actual official high and low records may vary slightly from our data, if they occured in-between our weather recording intervals... More about our weather records

Advertising

Nanning Weather History for the Previous 24 Hours

 ConditionsComfort  
Time TempWeatherWind HumidityBarometerVisibility
11:00 AM
Fri, Feb 12
72 °FClear.1 mph78%29.86 "Hg4 mi
10:00 AM68 °FFog.3 mph88%29.86 "Hg3 mi
9:00 AM64 °FClear.1 mph94%29.86 "Hg4 mi
8:00 AM59 °FClear.3 mph100%29.86 "Hg5 mi
7:00 AM55 °FClear.3 mph100%29.86 "Hg4 mi
6:00 AM57 °FFog.1 mph94%29.83 "Hg3 mi
5:00 AM59 °FFog.3 mph94%29.83 "Hg3 mi
4:00 AM57 °FFog.1 mph100%29.80 "Hg3 mi
3:00 AM57 °FFog.1 mph100%29.80 "Hg3 mi
2:00 AM59 °FFog.3 mph100%29.80 "Hg3 mi
1:00 AM59 °FFog.1 mph94%29.83 "Hg3 mi
12:00 AM63 °FClear.1 mph94%29.83 "Hg4 mi
11:00 PM
Thu, Feb 11
64 °FClear.1 mph94%29.83 "Hg4 mi
10:00 PM66 °FClear.1 mph88%29.80 "Hg10 mi
9:00 PM68 °FPassing clouds.3 mph83%29.80 "HgN/A
8:00 PM70 °FPassing clouds.6 mph78%29.77 "HgN/A
7:00 PM73 °FPassing clouds.6 mph74%29.74 "HgN/A
6:00 PM77 °FSunny.10 mph61%29.74 "Hg10 mi
5:00 PM79 °FScattered clouds.10 mph61%29.74 "HgN/A
4:00 PM79 °FPassing clouds.6 mph61%29.74 "HgN/A
3:00 PM77 °FPassing clouds.3 mph65%29.77 "HgN/A
2:00 PM75 °FPassing clouds.6 mph65%29.83 "HgN/A
1:00 PM72 °FPassing clouds.6 mph69%29.86 "HgN/A
12:00 PM70 °FHaze.1 mph73%29.89 "Hg3 mi
Weather by CustomWeather, © 2016

See weather overviewHow to use our weather pages